Regional Weather Roundup
Issued by NWS Cleveland, OH

Home | Current Version | Previous Version | Graphics & Text | Print | Product List | Glossary On
Versions: 1 2 3 4 5 6 7 8 9 10 11 12 13 14 15 16 17 18 19 20 21 22 23 24 25 26 27 28 29 30 31 32 33 34 35 36 37 38 39 40 41 42 43 44 45 46 47 48 49 50
000
ASUS41 KCLE 022002
RWRCLE
OHIO REGIONAL WEATHER ROUNDUP
NATIONAL WEATHER SERVICE CLEVELAND, OH
300 PM EST MON MAR 02 2015

NOTE: "FAIR" INDICATES FEW OR NO CLOUDS BELOW 12,000 FEET WITH NO
SIGNIFICANT WEATHER AND/OR OBSTRUCTIONS TO VISIBILITY.

OHZ001>008-015>018-024>027-034-035-043-044-022100-
   NORTHWEST OHIO

CITY           SKY/WX    TMP DP  RH WIND       PRES   REMARKS
DEFIANCE       SUNNY     29  15  56 SW8       30.47F WCI  21
FINDLAY        SUNNY     25  16  68 W8        30.46F WCI  16
TOLEDO EXPRESS MOSUNNY   27  16  63 W12       30.46F WCI  17
TOLEDO EXEC    SUNNY     27  17  66 SW9       30.47F WCI  18
LIMA           SUNNY     27  14  58 NW7       30.46F WCI  19
$$

OHZ009>014-019>023-028>033-038-089-022100-
   NORTHEAST OHIO

CITY           SKY/WX    TMP DP  RH WIND       PRES   REMARKS
CLE-HOPKINS    MOSUNNY   28  11  48 W8        30.47S WCI  20
CLE-LAKEFRONT  SUNNY     25  16  68 W10       30.45S WCI  15
CUY CO. ARPT   MOSUNNY   28  18  64 NW12      30.45S WCI  18
LORAIN-ELYRIA  SUNNY     26  12  55 W10       30.45F WCI  16
ASHTABULA      SUNNY     26   8  46 NW13      30.42R WCI  15
AKRON-CANTON   PTSUNNY   27  13  55 W10       30.41S WCI  17
WOOSTER        SUNNY     25  11  55 W13       30.43F WCI  14
MANSFIELD      SUNNY     26  10  50 W9        30.43F WCI  17
YOUNGSTOWN     MOSUNNY   29  11  47 W12       30.39R WCI  19
$$

OHZ042-051>053-060>062-070>072-077>081-022100-
  SOUTHWEST OHIO

CITY           SKY/WX    TMP DP  RH WIND       PRES   REMARKS
CINC-COVINGTON PTSUNNY   34  14  43 N3        30.44F
CINC-LUNKEN    MOSUNNY   33  14  45 CALM      30.48F
HAMILTON       MOSUNNY   32  15  49 N5        30.48F WCI  27
DAYTON         PTSUNNY   29  14  53 N7        30.46F WCI  22
WRIGHT-PAT AFB SUNNY     29  14  52 N5        30.46F WCI  24
DAYTON GENERAL SUNNY     31  14  49 NE6       30.44F WCI  25
WILMINGTON     SUNNY     27  13  55 NE6       30.44F WCI  20
$$

OHZ036-037-039>041-045>050-054>059-063>069-073>076-082>088-022100-
  CENTRAL AND SOUTHEAST OHIO

CITY           SKY/WX    TMP DP  RH WIND       PRES   REMARKS
COLUMBUS       PTSUNNY   30  13  49 W5        30.46F WCI  25
OSU AIRPORT    SUNNY     29  12  49 CALM      30.45F
BOLTON FIELD   SUNNY     28  14  54 NW5       30.46F WCI  23
RICKENBACK AFB SUNNY     28  13  53 NW3       30.46F
NEWARK         SUNNY     30  13  49 W6        30.45F WCI  24
MARION         FAIR      27  13  55 N6        30.46F WCI  20
LANCASTER      SUNNY     28  16  60 W3        30.46F
ZANESVILLE     SUNNY     30  10  43 NW10      30.44F WCI  21
NEW PHILLY     SUNNY     30  13  49 NW12      30.45S WCI  20
$$



USA.gov is the U.S. government's official web portal to all federal, state and local government web resources and services.